Location: *
(38.9555°S, 57.3572°E)
Time: 01:45:09
(UTC+00:00)

Cosmos 1908 - Pass Details

Date: 15 July 2020
Orbit: 513 x 529 km, 82.5° (Epoch: 06 August)

Event Time Altitude Azimuth Distance (km) Brightness Sun altitude
Rises 14:14:49 0° 19° (NNE) 2,656 6.8 -12.9°
Reaches altitude 10° 14:17:09 10° 31° (NNE) 1,774 5.8 -13.3°
Maximum altitude 14:20:29 27° 90° (E) 1,034 4.2 -14.0°
Enters shadow 14:21:33 24° 117° (ESE) 1,132 4.3 -14.2°
